Weather Service Report


417 
ASUS45 KBOU 160410
RWRCO 

WEATHER ROUNDUP FOR COLORADO
NATIONAL WEATHER SERVICE DENVER/BOULDER CO
1000 PM MDT SUN JUL 15 2018

NOTE: "FAIR" INDICATES FEW OR NO CLOUDS BELOW 12000 FEET WITH NO
SIGNIFICANT WEATHER AND/OR OBSTRUCTIONS TO VISIBILITY.

COZ001>005-013-030-031-160500-
...NORTHWEST COLORADO...
  
CITY           SKY/WX    TMP DP  RH WIND       PRES   REMARKS
CRAIG          FAIR      72  47  40 E5        30.23R                  
HAYDEN         FAIR      68  48  48 SE9       30.28R                  
MEEKER         FAIR      70  45  40 CALM      30.24R                  
RANGELY        FAIR      79  41  26 SE3       30.12R                  
RABBIT EARS PA FAIR      54  45  71 CALM      30.60R                  
STEAMBOAT SPGS FAIR      70  47  44 SE3       30.30R                  
WALDEN         FAIR      59  48  67 CALM      30.43R                  
$$

COZ006>008-011-160500-
...WEST CENTRAL VALLEYS...
  
CITY           SKY/WX    TMP DP  RH WIND       PRES   REMARKS
GRAND JUNCTION FAIR      81  53  37 SE16G25   30.11R                  
MONTROSE       FAIR      72  52  49 E14G22    30.25R                  
EAGLE          FAIR      70  49  47 E9        30.30R                  
RIFLE          FAIR      78  51  38 SE15      30.18R                  
DELTA          FAIR      75  56  51 MISG      30.20R                  
NUCLA          FAIR     N/A N/A N/A E9        30.26R                  
$$

COZ017>023-064>068-160500-
...SOUTHWEST COLORADO...
  
CITY           SKY/WX    TMP DP  RH WIND       PRES   REMARKS
DURANGO        FAIR      62  56  80 E6        30.29R                  
CORTEZ         FAIR      70  53  54 CALM      30.20R                  
PAGOSA SPRINGS MOCLDY    61  53  76 N3        30.40S                  
TELLURIDE      FAIR      55  50  82 CALM      30.50R                  
WOLF CREEK PAS RAIN      43  43 100 N6        30.76S                  
$$

COZ009-010-012-014-032>034-037-058>063-160500-
...CENTRAL COLORADO...
  
CITY           SKY/WX    TMP DP  RH WIND       PRES   REMARKS
ASPEN          FAIR      64  47  53 SE8       30.38R                  
BUENA VISTA    FAIR      60  55  83 CALM      30.49R                  
COPPER MTN     FAIR      52  43  71 S15       30.72R                  
BERTHOUD PASS  FAIR      41  28  60 W8        30.75R                  
COTTONWOOD PAS CLOUDY    57  54  88 CALM      30.60R                  
GUNNISON       CLOUDY    59  55  87 N3        30.44R                  
GRANBY         FAIR      57  48  72 CALM      30.44R                  
KREMMLING      FAIR      68  50  52 S8        30.38R                  
LEADVILLE      CLOUDY    51  50  96 CALM      30.59R                  
MONARCH PASS   MOCLDY    45  45 100 MISG      30.83R                  
SALIDA         CLOUDY    64  56  77 CALM      30.52R                  
SUNLIGHT       CLOUDY    54  43  66 SE7       30.64R                  
WILKERSON PASS LGT RAIN  46  45  93 SW10      30.70R VSB 1/2          
$$

COZ069>075-160500-
...SAN LUIS VALLEY/SANGRE DE CRISTO MOUNTAINS...
  
CITY           SKY/WX    TMP DP  RH WIND       PRES   REMARKS
ALAMOSA        CLOUDY    60  56  86 N8        30.43R                  
DEL NORTE      DRIZZLE   59  55  86 W3        30.48R                  
LA VETA PASS   NOT AVBL                                               
SAGUACHE       CLOUDY    59  55  88 CALM      30.47R                  
$$

COZ035-036-038>040-160500-
...NORTHERN COLORADO FRONT RANGE...
  
CITY           SKY/WX    TMP DP  RH WIND       PRES   REMARKS
DENVER INTL AP FAIR      62  60  93 S5        30.30R                  
AURORA         MOCLDY    62  62 100 SW3       30.32R                  
FRONT RANGE AP FAIR      65  63  94 SE3       30.31S                  
ERIE MUNI ARPT FAIR      62  60  94 S3        30.33S                  
BOULDER MUN AP FAIR      61  61 100 CALM      30.29R                  
CENTENNIAL     MOCLDY    62  61  96 SW3       30.32S                  
BROOMFIELD     PTCLDY    61  59  94 CALM      30.32S                  
FORT COLLINS   FAIR      61  59  93 S6        30.28R                  
LONGMONT       FAIR      63  60  91 CALM      30.30S                  
$$

COZ041-046-047-076>085-087-088-160500-
...PIKES PEAK/PALMER DIVIDE AND SOUTHERN FOOTHILLS...
  
CITY           SKY/WX    TMP DP  RH WIND       PRES   REMARKS
COLO. SPRINGS  MOCLDY    65  59  81 E6        30.37R                  
A. F. ACADEMY  CLOUDY    62  61  98 NW5       30.37S                  
SCHRIEVER AFB  NOT AVBL                                               
CHEYENNE MTN   MOCLDY    64  51  63 SW5       30.34R                  
ELLICOTT         N/A    N/A N/A N/A N8        30.33R                  
FALCON         FAIR      61  59  92 N6        30.41R                  
FORT CARSON    NOT AVBL                                               
LIMON          NOT AVBL                                               
MONUMENT HILL  CLOUDY    59  59 100 SE6       30.41S                  
CANON CITY     CLOUDY    68  64  88 CALM      30.31R                  
WALSENBURG     CLOUDY    72  55  56 N14       30.35R                  
TRINIDAD       CLOUDY    72  55  55 N9        30.31R                  
$$

COZ042>045-048>051-090-091-160500-
...NORTHEAST COLORADO...
  
CITY           SKY/WX    TMP DP  RH WIND       PRES   REMARKS
GREELEY ARPT   FAIR      61  59  93 CALM      30.28R                  
AKRON          LGT RAIN  67  63  87 SE10      30.26R                  
BURLINGTON     FAIR      73  64  73 E9        30.21R                  
WRAY           LGT RAIN  72  63  73 NE8       30.21R                  
YUMA           CLOUDY    68  45  42 CALM      30.23R                  
STERLING       FAIR      68  61  77 E5        30.22R                  
HOLYOKE        LGT RAIN  72  64  78 E3        30.23R                  
FORT MORGAN    MOCLDY    66  62  86 W5        30.27R                  
$$

COZ086-089-092>099-160500-
...SOUTHEAST COLORADO...
  
CITY           SKY/WX    TMP DP  RH WIND       PRES   REMARKS
PUEBLO         MOCLDY    71  63  75 NW5       30.26R                  
LA JUNTA       NOT AVBL                                               
LAMAR          FAIR      78  61  55 E17G30    30.13R                  
SPRINGFIELD      N/A     74  61  63 SE12      30.16R                  
$$
  

Return to Home page


Western Regional Climate Center, wrcc@dri.edu